SL-8 DEB, 1618

Orbit data source: Space-Track

SL-8 DEB, 1618 is space debris in LEO originally from a launch on Sat, 18 Sep 1965 UTC launched from the Tyuratam Missile And Space Complex (TTMTR). Debris objects in space refer to the collection of defunct objects orbiting the Earth. Examples of debris include non-operational satellites, rocket bodies, and fragments generated from explosions, collisions, or faulty payload assembly.

Loading next visibility...
Identifier
1618, 1965-073K
Orbit
LEO
Country
Flag of CISCIS
Related business
Manufacturer
Unknown
Mission
Spacecraft
Bus & Motor
Unknown
Mass
Unknown
Launch date (UTC)
1965-09-18 (61 years ago)
Launch vehicle
Unknown
Launch site
Tyuratam Missile And Space Complex (TTMTR)
Object type
Payload
Rocket body
Debris
Shape & HBR
Unknown shape, 0.2 m
Radar Cross Section
Medium (>0.1 m² and <1 m²)

Expand to show TLE details & history
Last TLE update: 20 hours ago

TLE from 20 hours ago
0 SL-8 DEB
1  1618U 65073K   26109.94544707  .00000118  00000-0  16176-2 0  9998
2  1618  56.1759 299.7787 0225511 184.8548 326.5588 12.30398931715946
Epoch: 2026-04-19T22:41Z
TLE epoch observation values (Epoch: 2026-04-19T22:41:26.626Z)
Latitude
24.63381°
Longitude
-86.42674°
Altitude
1,400.849 km
Speed
7.229 km/s
True Right ascension
06h 47m 54s
True Declination
24° 30' 52"
Sunlit
Object was in daylight at epoch
Visualization orbit readout
Latitude
Unknown
Longitude
Unknown
Altitude
Unknown
Speed
Unknown
Apparent Right ascension
Unknown
Apparent Declination
Unknown
Sunlit
N/A
Visualization observer readout
Local Sidereal Time
02:00:35
Azimuth
Unknown
Elevation
Unknown
Doppler factor
Unknown
Orbital elements
Apogee altitude
1,726.106 km
Perigee altitude
1,368.647 km
Semi-major axis
7,925.514 km
Eccentricity
0.02255
Inclination
56.1759°
RAAN
299.7787°
Arg. of periapsis
184.8548°
True anomaly
325.1006°
Mean anomaly
326.5588°
Eccentric anomaly
325.83316°
Mean motion
3.07611 °/min
Orbital period
117.03 mins
BSTAR
0.0016176
Loading maneuver chart data...
Computing Atmospheric mass density...
Loading historical data...
Loading historical data...
Loading historical data...
Loading historical data...
Loading historical data...
Loading historical data...
Loading historical data...

Documentation

Showing up to 5 results
|